Regional Weather Roundup
Issued by NWS Mobile, AL

Home | Current Version | Previous Version | Text Only | Print | Product List | Glossary On
Versions: 1 2 3 4 5 6 7 8 9 10 11 12 13 14 15 16 17 18 19 20 21 22 23 24 25 26 27 28 29 30 31 32 33 34 35 36 37 38 39 40 41 42 43 44 45 46 47 48 49 50
000
ASUS44 KMOB 292012
RWRMOB
REGIONAL WEATHER ROUNDUP
NATIONAL WEATHER SERVICE MOBILE AL
300 PM CDT FRI APR 29 2016

NOTE: "FAIR" INDICATES FEW OR NO CLOUDS BELOW 12,000 FEET WITH NO
      SIGNIFICANT WEATHER AND/OR OBSTRUCTIONS TO VISIBILITY.

  * THESE STATIONS ARE PART OF THE UNIVERSITY OF SOUTH ALABAMA
    MESONET AND ARE NOT UNDER NWS OR FAA QUALITY CONTROL.

ALZ061>064-292100-
COASTAL ALABAMA

CITY           SKY/WX    TMP DP  RH WIND       PRES   REMARKS
MOBILE REG APT PTSUNNY   85  68  56 SE15      29.94F
BROOKLEY FIELD SUNNY     81  72  74 S10       29.95S
USA CAMPUS*    NOT AVBL
DOG RIVER*     NOT AVBL


CITY           SKY/WX    TMP DP  RH WIND       PRES   REMARKS
MOUNT VERNON*  NOT AVBL
SARALAND*      NOT AVBL
BAY MINETTE*   NOT AVBL
LOXLEY*        NOT AVBL
ROBERTSDALE*   NOT AVBL
FAIRHOPE*      NOT AVBL
ELBERTA*       NOT AVBL
FOLEY*         NOT AVBL
GRAND BAY*     NOT AVBL
DAUPHIN ISLND* NOT AVBL
BON SCOUR NWR* NOT AVBL
GULF SHORES    MOSUNNY   80  75  83 S13G20    29.94S

$$

ALZ051>060-292100-
INTERIOR SOUTHWEST AND SOUTH CENTRAL ALABAMA

CITY           SKY/WX    TMP DP  RH WIND       PRES   REMARKS
GREENVILLE     MOSUNNY   85  67  54 S6        29.92F
EVERGREEN      MOSUNNY   88  67  49 S9        29.92F
CASTLEBERRY*   NOT AVBL
ATMORE*        NOT AVBL
DIXIE*         NOT AVBL
ANDALUSIA/OPP  PTSUNNY   92  67  43 S5        29.92F HX  95
ANDALUSIA*     NOT AVBL
FLORALA APT    PTSUNNY   86  65  49 S7        29.94F
FLORALA*       NOT AVBL

$$

FLZ001>006-292100-
WESTERN FLORIDA PANHANDLE

CITY           SKY/WX    TMP DP  RH WIND       PRES   REMARKS
PENSACOLA      SUNNY     85  69  58 S10       29.94F
NAS PENSACOLA  MOSUNNY   80  73  79 S10       29.94S
MILTON         MOSUNNY   85  68  56 S13       29.94S
WHTNG S FIELD  MOSUNNY   87  68  52 S10G18    29.94S


CITY           SKY/WX    TMP DP  RH WIND       PRES   REMARKS
WALNUT HILL*   NOT AVBL
JAY*           NOT AVBL
DUKE FIELD     MOSUNNY   87  65  48 S10       29.93S
CRESTVIEW      SUNNY     88  63  43 S12       29.94F
VALPARAISO     MOSUNNY   82  71  69 S10       29.94F
DESTIN         SUNNY     83  75  77 SW7       29.94F

$$

MSZ076-079-292100-
INTERIOR SOUTHEAST MISSISSIPPI

CITY           SKY/WX    TMP DP  RH WIND       PRES   REMARKS
LEAKESVILLE*   NOT AVBL
AGRICOLA*      NOT AVBL

$$

MARINE OBSERVATIONS

STATION/POSITION TIME  TEMP    WIND        PRES    WAVE
                       AIR SEA DIR/SP/G            HT/PER
                 (UTC) (F)     (DEG/KT/KT) (MB)    (FT/S)
PASCAGOULA       1900   77     150/ 10/ 13 1013.8S
PETIT BOIS ISLND 1900   78     140/  9/ 11 1014.6F
GRAND BAY        1800   77     150/  9     1015.0F
KATRINA CUT      1900   76     150/ 10       N/A
CEDAR POINT      1900   77     140/  8     1013.9F
E DAUPHIN ISLAND 1900   76     130/ 11/ 12 1013.6F
MIDDLE BAY LIGHT 1900   77     150/ 11     1013.9F
USCG MOBILE BAY  1900   80 75  190/  8/ 15 1014.5F
STATE DOCKS      1900   83 72              1013.6F
MEAHER PARK      1900   76     200/  9     1012.9F
WEEKS BAY        1800   84                   N/A
FORT MORGAN      1900   77     150/ 11/ 12 1013.5F
12 S ORANGE BCH  1950   75 74  130/  6/  6 1013.1F   3/ 6
PENSACOLA BAY    1900   83 68  200/  5/  7 1014.4F
64 S DAUPHIN ISL 1900   76 74  140/ 10/ 12 1013.3F

$$

SELECTED LOCATIONS ACROSS THE REGION

CITY           SKY/WX    TMP DP  RH WIND       PRES   REMARKS
NEW ORLEANS    MOSUNNY   85  70  60 S20G25    29.89S
GULFPORT       MOSUNNY   81  73  76 SE16      29.92F
PASCAGOULA AP  SUNNY     83  70  64 SE17      29.93F
PASCAGOULA*    NOT AVBL
HATTIESBURG    CLOUDY    88  67  49 SE13G22   29.90F
LAUREL         PTSUNNY   84  66  54 S15G22    29.91F
MERIDIAN       CLOUDY    85  67  54 S9        29.89F
JACKSON        CLOUDY    83  66  56 S12       29.88F
MONTGOMERY     CLOUDY    88  67  49 SE8       29.92F
TROY           MOSUNNY   88  69  53 SE6       29.93F
KINSTON*       NOT AVBL
GENEVA*        NOT AVBL
ASHFORD*       NOT AVBL
DOTHAN         PTSUNNY   88  66  48 S7        29.96F
PANAMA CITY    SUNNY     84  70  62 S14       29.93F

$$




USA.gov is the U.S. government's official web portal to all federal, state and local government web resources and services.